FENGYUN 1C DEB, 31171

Orbit data source: Space-Track

FENGYUN 1C DEB, 31171 is space debris in SSO originally from a launch on Mon, 10 May 1999 UTC launched from the Taiyaun Space Center, China (TSC). Fengyun 1C debris stems from the Chinese weather satellite Fengyun-1C, which was intentionally destroyed by a Chinese anti-satellite missile in 2007. This event dramatically increased the amount of space debris, with thousands of trackable fragments posing hazards to satellites and human spaceflight. The Fengyun 1C debris cloud has become a focal point in discussions about space sustainability and the need for international regulations to prevent the creation of new debris.

Loading next visibility...
Identifier
31171, 1999-025BHZ
Orbit
SSO
Country
Flag of CNCN / PRC
Related business
Manufacturer
Unknown
Mission
Spacecraft
Bus & Motor
Unknown
Mass
Unknown
Launch date (UTC)
1999-05-10 (27 years ago)
Launch vehicle
Unknown
Launch site
Taiyaun Space Center, China (TSC)
Object type
Payload
Rocket body
Debris
Shape & HBR
Unknown shape, 0.1 m
Radar Cross Section
Small (<0.1 m²)

Expand to show TLE details & history
Last TLE update: 2 days ago

TLE from 2 days ago
0 FENGYUN 1C DEB
1 31171U 99025BHZ 26122.43634326  .00007026  00000-0  20587-2 0  9991
2 31171  98.0281 107.5736 0144585 251.3908 262.6987 14.38242931978503
Epoch: 2026-05-02T10:28Z
TLE epoch observation values (Epoch: 2026-05-02T10:28:20.057Z)
Latitude
27.29725°
Longitude
-85.71234°
Altitude
782.277 km
Speed
7.457 km/s
True Right ascension
19h 26m 54s
True Declination
27° 09' 28"
Sunlit
Object was in daylight at epoch
Visualization orbit readout
Latitude
Unknown
Longitude
Unknown
Altitude
Unknown
Speed
Unknown
Apparent Right ascension
Unknown
Apparent Declination
Unknown
Sunlit
N/A
Visualization observer readout
Local Sidereal Time
16:36:47
Azimuth
Unknown
Elevation
Unknown
Doppler factor
Unknown
Orbital elements
Apogee altitude
864.639 km
Perigee altitude
658.184 km
Semi-major axis
7,139.548 km
Eccentricity
0.01446
Inclination
98.0281°
RAAN
107.5736°
Arg. of periapsis
251.3908°
True anomaly
261.0593°
Mean anomaly
262.6987°
Eccentric anomaly
261.8786°
Mean motion
3.5978 °/min
Orbital period
100.06 mins
BSTAR
0.0020587
Loading maneuver chart data...
Computing Atmospheric mass density...
Loading historical data...
Loading historical data...
Loading historical data...
Loading historical data...
Loading historical data...
Loading historical data...
Loading historical data...

Documentation

Showing up to 5 results
|